Location: Poughquag
(41.6090°N, 73.6820°W)
Time: 04:11:20
(UTC-04:00)

Envisat - Visible Passes

Search period start: 19 March 2019 00:00
Search period end: 29 March 2019 00:00
Orbit: 764 x 766 km, 98.2° (Epoch: 19 March)

Date Brightness Start Highest point End Pass type
(mag) Time Alt. Az. Time Alt. Az. Time Alt. Az.
19 Mar 3.7 19:50:27 10° S 19:55:26 58° W 20:00:28 10° NNW visible
20 Mar 5.9 20:55:19 10° SW 20:58:09 15° W 21:01:01 10° NW visible
21 Mar 4.8 20:16:33 10° SSW 20:21:05 33° W 20:25:40 10° NNW visible
22 Mar 3.3 19:39:09 10° S 19:44:12 74° WSW 19:49:19 10° NNW visible
23 Mar 5.7 20:43:16 10° SW 20:46:50 19° W 20:50:24 10° NW visible
24 Mar 4.4 20:05:01 10° SSW 20:09:48 42° W 20:14:37 10° NNW visible
25 Mar 6.3 21:11:58 10° W 21:12:40 10° W 21:13:23 10° W visible
26 Mar 5.4 20:31:27 10° SSW 20:35:30 24° W 20:39:35 10° NW visible
27 Mar 3.9 19:53:37 10° S 19:58:33 53° W 20:03:32 10° NNW visible
28 Mar 6.0 20:58:50 10° WSW 21:01:19 14° W 21:03:47 10° WNW visible
